Location: Betra
(48.4113°N, 8.6634°E)
Time: 19:15:14
(UTC+00:00)

SL-4 R/B - Pass Details

Date: 23 May 2024
Orbit: 412 x 601 km, 51.6° (Epoch: 16 June)

Event Time Altitude Azimuth Distance (km) Brightness Sun altitude
Exits shadow 02:45:51 - 215° (SW) 1,983 4.2 -7.3°
Reaches altitude 10° 02:46:08 10° 213° (SSW) 1,885 4.1 -7.3°
Maximum altitude 02:50:11 40° 144° (SE) 876 3.0 -6.8°
Drops below altitude 10° 02:54:23 10° 75° (ENE) 1,949 6.0 -6.3°
Sets 02:56:48 0° 68° (ENE) 2,861 7.3 -6.0°
